Year,Month,Day,Hour,Minute,Value (Times are PST for temperature in C)
2017,04,11,00,00,6.20
2017,04,11,00,01,6.20
2017,04,11,00,02,6.20
2017,04,11,00,03,6.20
2017,04,11,00,04,6.20
2017,04,11,00,05,6.20
2017,04,11,00,06,6.10
2017,04,11,00,07,6.10
2017,04,11,00,08,6.10
2017,04,11,00,09,6.10
2017,04,11,00,10,6.10
2017,04,11,00,11,6.10
2017,04,11,00,12,6.10
2017,04,11,00,13,6.10
2017,04,11,00,14,6.10
2017,04,11,00,15,6.10
2017,04,11,00,16,6.10
2017,04,11,00,17,6.00
2017,04,11,00,18,6.00
2017,04,11,00,19,6.00
2017,04,11,00,20,6.00
2017,04,11,00,21,6.00
2017,04,11,00,22,6.00
2017,04,11,00,23,5.90
2017,04,11,00,24,5.90
2017,04,11,00,25,5.90
2017,04,11,00,26,5.90
2017,04,11,00,27,5.80
2017,04,11,00,28,5.80
2017,04,11,00,29,5.80
2017,04,11,00,30,5.80
2017,04,11,00,31,5.70
2017,04,11,00,32,5.70
2017,04,11,00,33,5.70
2017,04,11,00,34,5.70
2017,04,11,00,35,5.70
2017,04,11,00,36,5.70
2017,04,11,00,37,5.60
2017,04,11,00,38,5.60
2017,04,11,00,39,5.60
2017,04,11,00,40,5.60
2017,04,11,00,41,5.60
2017,04,11,00,42,5.60
2017,04,11,00,43,5.60
2017,04,11,00,44,5.60
2017,04,11,00,45,5.60
2017,04,11,00,46,5.60
2017,04,11,00,47,5.60
2017,04,11,00,48,5.60
2017,04,11,00,49,5.60
2017,04,11,00,50,5.60
2017,04,11,00,51,5.60
2017,04,11,00,52,5.60
2017,04,11,00,53,5.60
2017,04,11,00,54,5.60
2017,04,11,00,55,5.50
2017,04,11,00,56,5.50
2017,04,11,00,57,5.50
2017,04,11,00,58,5.50
2017,04,11,00,59,5.50
2017,04,11,01,00,5.50
2017,04,11,01,01,5.50
2017,04,11,01,02,5.50
2017,04,11,01,03,5.40
2017,04,11,01,04,5.40
2017,04,11,01,05,5.40
2017,04,11,01,06,5.50
2017,04,11,01,07,5.50
2017,04,11,01,08,5.50
2017,04,11,01,09,5.50
2017,04,11,01,10,5.40
2017,04,11,01,11,5.40
2017,04,11,01,12,5.40
2017,04,11,01,13,5.40
2017,04,11,01,14,5.40
2017,04,11,01,15,5.40
2017,04,11,01,16,5.40
2017,04,11,01,17,5.40
2017,04,11,01,18,5.40
2017,04,11,01,19,5.40
2017,04,11,01,20,5.40
2017,04,11,01,21,5.40
2017,04,11,01,22,5.40
2017,04,11,01,23,5.40
2017,04,11,01,24,5.40
2017,04,11,01,25,5.40
2017,04,11,01,26,5.30
2017,04,11,01,27,5.30
2017,04,11,01,28,5.30
2017,04,11,01,29,5.30
2017,04,11,01,30,5.30
2017,04,11,01,31,5.30
2017,04,11,01,32,5.20
2017,04,11,01,33,5.20
2017,04,11,01,34,5.20
2017,04,11,01,35,5.20
2017,04,11,01,36,5.20
2017,04,11,01,37,5.20
2017,04,11,01,38,5.20
2017,04,11,01,39,5.20
2017,04,11,01,40,5.20
2017,04,11,01,41,5.20
2017,04,11,01,42,5.20
2017,04,11,01,43,5.20
2017,04,11,01,44,5.10
2017,04,11,01,45,5.10
2017,04,11,01,46,5.10
2017,04,11,01,47,5.10
2017,04,11,01,48,5.00
2017,04,11,01,49,5.00
2017,04,11,01,50,4.90
2017,04,11,01,51,4.90
2017,04,11,01,52,4.90
2017,04,11,01,53,4.80
2017,04,11,01,54,4.80
2017,04,11,01,55,4.80
2017,04,11,01,56,4.80
2017,04,11,01,57,4.80
2017,04,11,01,58,4.80
2017,04,11,01,59,4.90
2017,04,11,02,00,4.90
2017,04,11,02,01,4.90
2017,04,11,02,02,4.90
2017,04,11,02,03,4.90
2017,04,11,02,04,4.90
2017,04,11,02,05,4.90
2017,04,11,02,06,4.90
2017,04,11,02,07,4.90
2017,04,11,02,08,4.90
2017,04,11,02,09,4.90
2017,04,11,02,10,4.90
2017,04,11,02,11,4.90
2017,04,11,02,12,4.90
2017,04,11,02,13,4.90
2017,04,11,02,14,4.90
2017,04,11,02,15,4.90
2017,04,11,02,16,4.90
2017,04,11,02,17,4.90
2017,04,11,02,18,4.90
2017,04,11,02,19,4.90
2017,04,11,02,20,4.90
2017,04,11,02,21,4.90
2017,04,11,02,22,4.90
2017,04,11,02,23,4.80
2017,04,11,02,24,4.80
2017,04,11,02,25,4.90
2017,04,11,02,26,4.90
2017,04,11,02,27,4.90
2017,04,11,02,28,4.90
2017,04,11,02,29,4.90
2017,04,11,02,30,4.90
2017,04,11,02,31,4.90
2017,04,11,02,32,4.90
2017,04,11,02,33,4.90
2017,04,11,02,34,4.90
2017,04,11,02,35,4.90
2017,04,11,02,36,4.90
2017,04,11,02,37,4.90
2017,04,11,02,38,4.90
2017,04,11,02,39,4.90
2017,04,11,02,40,4.90
2017,04,11,02,41,4.90
2017,04,11,02,42,4.90
2017,04,11,02,43,4.90
2017,04,11,02,44,4.90
2017,04,11,02,45,4.90
2017,04,11,02,46,4.90
2017,04,11,02,47,4.90
2017,04,11,02,48,4.90
2017,04,11,02,49,4.80
2017,04,11,02,50,4.80
2017,04,11,02,51,4.80
2017,04,11,02,52,4.80
2017,04,11,02,53,4.80
2017,04,11,02,54,4.80
2017,04,11,02,55,4.80
2017,04,11,02,56,4.80
2017,04,11,02,57,4.80
2017,04,11,02,58,4.80
2017,04,11,02,59,4.80
2017,04,11,03,00,4.80
2017,04,11,03,01,4.80
2017,04,11,03,02,4.70
2017,04,11,03,03,4.70
2017,04,11,03,04,4.70
2017,04,11,03,05,4.70
2017,04,11,03,06,4.70
2017,04,11,03,07,4.60
2017,04,11,03,08,4.60
2017,04,11,03,09,4.60
2017,04,11,03,10,4.60
2017,04,11,03,11,4.60
2017,04,11,03,12,4.60
2017,04,11,03,13,4.60
2017,04,11,03,14,4.60
2017,04,11,03,15,4.60
2017,04,11,03,16,4.60
2017,04,11,03,17,4.60
2017,04,11,03,18,4.60
2017,04,11,03,19,4.60
2017,04,11,03,20,4.60
2017,04,11,03,21,4.60
2017,04,11,03,22,4.60
2017,04,11,03,23,4.50
2017,04,11,03,24,4.50
2017,04,11,03,25,4.50
2017,04,11,03,26,4.40
2017,04,11,03,27,4.40
2017,04,11,03,28,4.40
2017,04,11,03,29,4.30
2017,04,11,03,30,4.30
2017,04,11,03,31,4.30
2017,04,11,03,32,4.30
2017,04,11,03,33,4.30
2017,04,11,03,34,4.30
2017,04,11,03,35,4.30
2017,04,11,03,36,4.30
2017,04,11,03,37,4.20
2017,04,11,03,38,4.20
2017,04,11,03,39,4.20
2017,04,11,03,40,4.20
2017,04,11,03,41,4.10
2017,04,11,03,42,4.10
2017,04,11,03,43,4.10
2017,04,11,03,44,4.10
2017,04,11,03,45,4.10
2017,04,11,03,46,4.10
2017,04,11,03,47,4.00
2017,04,11,03,48,4.00
2017,04,11,03,49,4.00
2017,04,11,03,50,3.90
2017,04,11,03,51,3.90
2017,04,11,03,52,3.90
2017,04,11,03,53,3.90
2017,04,11,03,54,3.90
2017,04,11,03,55,3.90
2017,04,11,03,56,3.90
2017,04,11,03,57,3.90
2017,04,11,03,58,3.90
2017,04,11,03,59,3.90
2017,04,11,04,00,3.80
2017,04,11,04,01,3.80
2017,04,11,04,02,3.80
2017,04,11,04,03,3.80
2017,04,11,04,04,3.80
2017,04,11,04,08,3.80
2017,04,11,04,09,3.70
2017,04,11,04,10,3.70
2017,04,11,04,11,3.70
2017,04,11,04,12,3.60
2017,04,11,04,13,3.60
2017,04,11,04,14,3.60
2017,04,11,04,15,3.60
2017,04,11,04,16,3.60
2017,04,11,04,17,3.50
2017,04,11,04,18,3.50
2017,04,11,04,19,3.50
2017,04,11,04,20,3.40
2017,04,11,04,21,3.40
2017,04,11,04,22,3.40
2017,04,11,04,23,3.40
2017,04,11,04,24,3.40
2017,04,11,04,25,3.50
2017,04,11,04,26,3.50
2017,04,11,04,27,3.50
2017,04,11,04,28,3.60
2017,04,11,04,29,3.60
2017,04,11,04,30,3.60
2017,04,11,04,31,3.60
2017,04,11,04,32,3.60
2017,04,11,04,33,3.60
2017,04,11,04,34,3.60
2017,04,11,04,35,3.70
2017,04,11,04,36,3.70
2017,04,11,04,37,3.70
2017,04,11,04,38,3.70
2017,04,11,04,39,3.70
2017,04,11,04,40,3.80
2017,04,11,04,41,3.80
2017,04,11,04,42,3.80
2017,04,11,04,43,3.80
2017,04,11,04,44,3.80
2017,04,11,04,45,3.80
2017,04,11,04,46,3.80
2017,04,11,04,47,3.80
2017,04,11,04,48,3.80
2017,04,11,04,49,3.80
2017,04,11,04,50,3.80
2017,04,11,04,51,3.80
2017,04,11,04,52,3.80
2017,04,11,04,53,3.80
2017,04,11,04,54,3.80
2017,04,11,04,55,3.80
2017,04,11,04,56,3.80
2017,04,11,04,57,3.80
2017,04,11,04,58,3.80
2017,04,11,04,59,3.80
2017,04,11,05,00,3.80
2017,04,11,05,01,3.80
2017,04,11,05,02,3.80
2017,04,11,05,03,3.80
2017,04,11,05,04,3.80
2017,04,11,05,05,3.80
2017,04,11,05,06,3.80
2017,04,11,05,07,3.80
2017,04,11,05,08,3.80
2017,04,11,05,09,3.80
2017,04,11,05,10,3.70
2017,04,11,05,11,3.70
2017,04,11,05,12,3.70
2017,04,11,05,13,3.70
2017,04,11,05,14,3.70
2017,04,11,05,15,3.70
2017,04,11,05,16,3.70
2017,04,11,05,17,3.70
2017,04,11,05,18,3.70
2017,04,11,05,19,3.70
2017,04,11,05,20,3.70
2017,04,11,05,21,3.70
2017,04,11,05,22,3.70
2017,04,11,05,23,3.70
2017,04,11,05,24,3.70
2017,04,11,05,25,3.70
2017,04,11,05,26,3.60
2017,04,11,05,27,3.60
2017,04,11,05,28,3.60
2017,04,11,05,29,3.60
2017,04,11,05,30,3.60
2017,04,11,05,31,3.50
2017,04,11,05,32,3.50
2017,04,11,05,33,3.50
2017,04,11,05,34,3.50
2017,04,11,05,35,3.40
2017,04,11,05,36,3.40
2017,04,11,05,37,3.40
2017,04,11,05,38,3.40
2017,04,11,05,39,3.40
2017,04,11,05,40,3.40
2017,04,11,05,41,3.30
2017,04,11,05,42,3.30
2017,04,11,05,43,3.30
2017,04,11,05,44,3.30
2017,04,11,05,45,3.30
2017,04,11,05,46,3.30
2017,04,11,05,47,3.40
2017,04,11,05,48,3.40
2017,04,11,05,49,3.30
2017,04,11,05,50,3.40
2017,04,11,05,51,3.40
2017,04,11,05,52,3.40
2017,04,11,05,53,3.40
2017,04,11,05,54,3.40
2017,04,11,05,55,3.40
2017,04,11,05,56,3.40
2017,04,11,05,57,3.40
2017,04,11,05,58,3.40
2017,04,11,05,59,3.40
2017,04,11,06,00,3.40
2017,04,11,06,01,3.50
2017,04,11,06,02,3.50
2017,04,11,06,03,3.50
2017,04,11,06,04,3.50
2017,04,11,06,05,3.60
2017,04,11,06,06,3.60
2017,04,11,06,07,3.60
2017,04,11,06,08,3.70
2017,04,11,06,09,3.70
2017,04,11,06,10,3.80
2017,04,11,06,11,3.80
2017,04,11,06,12,3.80
2017,04,11,06,13,3.80
2017,04,11,06,14,3.80
2017,04,11,06,15,3.80
2017,04,11,06,16,3.90
2017,04,11,06,17,3.90
2017,04,11,06,18,3.90
2017,04,11,06,19,3.90
2017,04,11,06,20,4.00
2017,04,11,06,21,4.00
2017,04,11,06,22,4.00
2017,04,11,06,23,4.10
2017,04,11,06,24,4.10
2017,04,11,06,25,4.10
2017,04,11,06,26,4.10
2017,04,11,06,27,4.10
2017,04,11,06,28,4.10
2017,04,11,06,29,4.10
2017,04,11,06,30,4.10
2017,04,11,06,31,4.10
2017,04,11,06,32,4.10
2017,04,11,06,33,4.10
2017,04,11,06,34,4.10
2017,04,11,06,35,4.10
2017,04,11,06,36,4.10
2017,04,11,06,37,4.10
2017,04,11,06,38,4.10
2017,04,11,06,39,4.20
2017,04,11,06,40,4.20
2017,04,11,06,41,4.20
2017,04,11,06,42,4.20
2017,04,11,06,43,4.20
2017,04,11,06,44,4.20
2017,04,11,06,45,4.20
2017,04,11,06,46,4.20
2017,04,11,06,47,4.20
2017,04,11,06,48,4.20
2017,04,11,06,49,4.20
2017,04,11,06,50,4.30
2017,04,11,06,51,4.30
2017,04,11,06,52,4.30
2017,04,11,06,53,4.20
2017,04,11,06,54,4.20
2017,04,11,06,55,4.20
2017,04,11,06,56,4.20
2017,04,11,06,57,4.20
2017,04,11,06,58,4.20
2017,04,11,06,59,4.20
2017,04,11,07,00,4.20
2017,04,11,07,01,4.20
2017,04,11,07,02,4.20
2017,04,11,07,03,4.30
2017,04,11,07,04,4.30
2017,04,11,07,05,4.40
2017,04,11,07,06,4.40
2017,04,11,07,07,4.40
2017,04,11,07,08,4.40
2017,04,11,07,09,4.50
2017,04,11,07,10,4.50
2017,04,11,07,11,4.50
2017,04,11,07,12,4.60
2017,04,11,07,13,4.60
2017,04,11,07,14,4.60
2017,04,11,07,15,4.60
2017,04,11,07,16,4.60
2017,04,11,07,17,4.60
2017,04,11,07,18,4.60
2017,04,11,07,19,4.60
2017,04,11,07,20,4.60
2017,04,11,07,21,4.60
2017,04,11,07,22,4.70
2017,04,11,07,23,4.70
2017,04,11,07,24,4.70
2017,04,11,07,25,4.70
2017,04,11,07,26,4.70
2017,04,11,07,27,4.70
2017,04,11,07,28,4.70
2017,04,11,07,29,4.70
2017,04,11,07,30,4.70
2017,04,11,07,31,4.70
2017,04,11,07,32,4.70
2017,04,11,07,33,4.70
2017,04,11,07,34,4.80
2017,04,11,07,35,4.80
2017,04,11,07,36,4.80
2017,04,11,07,37,4.80
2017,04,11,07,38,4.90
2017,04,11,07,39,4.90
2017,04,11,07,40,5.00
2017,04,11,07,41,5.00
2017,04,11,07,42,5.10
2017,04,11,07,43,5.20
2017,04,11,07,44,5.20
2017,04,11,07,45,5.30
2017,04,11,07,46,5.30
2017,04,11,07,47,5.40
2017,04,11,07,48,5.40
2017,04,11,07,49,5.50
2017,04,11,07,50,5.50
2017,04,11,07,51,5.50
2017,04,11,07,52,5.60
2017,04,11,07,53,5.60
2017,04,11,07,54,5.60
2017,04,11,07,55,5.70
2017,04,11,07,56,5.70
2017,04,11,07,57,5.70
2017,04,11,07,58,5.70
2017,04,11,07,59,5.80
2017,04,11,08,00,5.80
2017,04,11,08,01,5.80
2017,04,11,08,02,5.80
2017,04,11,08,03,5.90
2017,04,11,08,04,5.90
2017,04,11,08,05,5.90
2017,04,11,08,06,5.90
2017,04,11,08,07,6.00
2017,04,11,08,08,6.00
2017,04,11,08,09,6.10
2017,04,11,08,10,6.10
2017,04,11,08,11,6.10
2017,04,11,08,12,6.20
2017,04,11,08,13,6.20
2017,04,11,08,14,6.30
2017,04,11,08,15,6.30
2017,04,11,08,16,6.40
2017,04,11,08,17,6.50
2017,04,11,08,18,6.60
2017,04,11,08,19,6.60
2017,04,11,08,20,6.70
2017,04,11,08,21,6.80
2017,04,11,08,22,6.90
2017,04,11,08,23,7.00
2017,04,11,08,24,7.00
2017,04,11,08,25,7.10
2017,04,11,08,26,7.20
2017,04,11,08,27,7.20
2017,04,11,08,28,7.30
2017,04,11,08,29,7.30
2017,04,11,08,30,7.30
2017,04,11,08,31,7.40
2017,04,11,08,32,7.40
2017,04,11,08,33,7.40
2017,04,11,08,34,7.40
2017,04,11,08,35,7.30
2017,04,11,08,36,7.20
2017,04,11,08,37,7.20
2017,04,11,08,38,7.10
2017,04,11,08,39,7.10
2017,04,11,08,40,7.00
2017,04,11,08,41,6.90
2017,04,11,08,42,6.90
2017,04,11,08,43,6.80
2017,04,11,08,44,6.80
2017,04,11,08,45,6.80
2017,04,11,08,46,6.80
2017,04,11,08,47,6.80
2017,04,11,08,48,6.80
2017,04,11,08,49,6.80
2017,04,11,08,50,6.80
2017,04,11,08,51,6.90
2017,04,11,08,52,6.90
2017,04,11,08,53,6.90
2017,04,11,08,54,6.90
2017,04,11,08,55,7.00
2017,04,11,08,56,7.00
2017,04,11,08,57,7.00
2017,04,11,08,58,7.10
2017,04,11,08,59,7.10
2017,04,11,09,00,7.10
2017,04,11,09,01,7.20
2017,04,11,09,02,7.20
2017,04,11,09,03,7.30
2017,04,11,09,04,7.30
2017,04,11,09,05,7.40
2017,04,11,09,06,7.50
2017,04,11,09,07,7.50
2017,04,11,09,08,7.50
2017,04,11,09,09,7.50
2017,04,11,09,10,7.50
2017,04,11,09,11,7.60
2017,04,11,09,12,7.60
2017,04,11,09,13,7.70
2017,04,11,09,14,7.70
2017,04,11,09,15,7.80
2017,04,11,09,16,7.80
2017,04,11,09,17,7.80
2017,04,11,09,18,7.80
2017,04,11,09,19,7.70
2017,04,11,09,20,7.70
2017,04,11,09,21,7.70
2017,04,11,09,22,7.70
2017,04,11,09,23,7.70
2017,04,11,09,24,7.70
2017,04,11,09,25,7.80
2017,04,11,09,26,7.80
2017,04,11,09,27,7.80
2017,04,11,09,28,7.80
2017,04,11,09,29,7.80
2017,04,11,09,30,7.80
2017,04,11,09,31,7.80
2017,04,11,09,32,7.80
2017,04,11,09,33,7.80
2017,04,11,09,34,7.80
2017,04,11,09,35,7.80
2017,04,11,09,36,7.80
2017,04,11,09,37,7.80
2017,04,11,09,38,7.80
2017,04,11,09,39,7.80
2017,04,11,09,40,7.80
2017,04,11,09,41,7.80
2017,04,11,09,42,7.80
2017,04,11,09,43,7.80
2017,04,11,09,44,7.80
2017,04,11,09,45,7.70
2017,04,11,09,46,7.70
2017,04,11,09,47,7.70
2017,04,11,09,48,7.70
2017,04,11,09,49,7.70
2017,04,11,09,50,7.70
2017,04,11,09,51,7.70
2017,04,11,09,52,7.70
2017,04,11,09,53,7.70
2017,04,11,09,54,7.60
2017,04,11,09,55,7.60
2017,04,11,09,56,7.60
2017,04,11,09,57,7.70
2017,04,11,09,58,7.60
2017,04,11,09,59,7.60
2017,04,11,10,00,7.70
2017,04,11,10,01,7.70
2017,04,11,10,02,7.70
2017,04,11,10,03,7.80
2017,04,11,10,04,7.90
2017,04,11,10,05,8.00
2017,04,11,10,06,8.00
2017,04,11,10,07,8.00
2017,04,11,10,08,7.90
2017,04,11,10,09,7.80
2017,04,11,10,10,7.80
2017,04,11,10,11,7.70
2017,04,11,10,12,7.70
2017,04,11,10,13,7.70
2017,04,11,10,14,7.70
2017,04,11,10,15,7.70
2017,04,11,10,16,7.60
2017,04,11,10,17,7.60
2017,04,11,10,18,7.60
2017,04,11,10,19,7.60
2017,04,11,10,20,7.70
2017,04,11,10,21,7.70
2017,04,11,10,22,7.70
2017,04,11,10,23,7.70
2017,04,11,10,24,7.70
2017,04,11,10,25,7.70
2017,04,11,10,26,7.70
2017,04,11,10,27,7.70
2017,04,11,10,28,7.70
2017,04,11,10,29,7.70
2017,04,11,10,30,7.70
2017,04,11,10,31,7.70
2017,04,11,10,32,7.70
2017,04,11,10,33,7.70
2017,04,11,10,34,7.80
2017,04,11,10,35,7.80
2017,04,11,10,36,7.90
2017,04,11,10,37,8.00
2017,04,11,10,38,8.00
2017,04,11,10,39,8.00
2017,04,11,10,40,8.00
2017,04,11,10,41,8.00
2017,04,11,10,42,8.00
2017,04,11,10,43,8.10
2017,04,11,10,44,8.10
2017,04,11,10,45,8.20
2017,04,11,10,46,8.30
2017,04,11,10,47,8.40
2017,04,11,10,48,8.50
2017,04,11,10,49,8.60
2017,04,11,10,50,8.70
2017,04,11,10,51,8.70
2017,04,11,10,52,8.80
2017,04,11,10,53,8.80
2017,04,11,10,54,8.90
2017,04,11,10,55,8.90
2017,04,11,10,56,8.90
2017,04,11,10,57,9.00
2017,04,11,10,58,9.00
2017,04,11,10,59,9.10
2017,04,11,11,00,9.10
2017,04,11,11,01,9.10
2017,04,11,11,02,9.10
2017,04,11,11,03,9.20
2017,04,11,11,04,9.20
2017,04,11,11,05,9.20
2017,04,11,11,06,9.20
2017,04,11,11,07,9.30
2017,04,11,11,08,9.30
2017,04,11,11,09,9.30
2017,04,11,11,10,9.40
2017,04,11,11,11,9.40
2017,04,11,11,12,9.40
2017,04,11,11,13,9.40
2017,04,11,11,14,9.40
2017,04,11,11,15,9.40
2017,04,11,11,16,9.40
2017,04,11,11,17,9.40
2017,04,11,11,18,9.40
2017,04,11,11,19,9.40
2017,04,11,11,20,9.40
2017,04,11,11,21,9.40
2017,04,11,11,22,9.40
2017,04,11,11,23,9.50
2017,04,11,11,24,9.50
2017,04,11,11,25,9.60
2017,04,11,11,26,9.60
2017,04,11,11,27,9.60
2017,04,11,11,28,9.70
2017,04,11,11,29,9.70
2017,04,11,11,30,9.80
2017,04,11,11,31,9.90
2017,04,11,11,32,9.90
2017,04,11,11,33,9.90
2017,04,11,11,34,9.90
2017,04,11,11,35,10.00
2017,04,11,11,36,10.00
2017,04,11,11,37,10.00
2017,04,11,11,38,10.00
2017,04,11,11,39,10.00
2017,04,11,11,40,10.10
2017,04,11,11,41,10.10
2017,04,11,11,42,10.10
2017,04,11,11,43,10.10
2017,04,11,11,44,10.10
2017,04,11,11,45,10.20
2017,04,11,11,46,10.20
2017,04,11,11,47,10.20
2017,04,11,11,48,10.20
2017,04,11,11,49,10.20
2017,04,11,11,50,10.10
2017,04,11,11,51,10.10
2017,04,11,11,52,10.10
2017,04,11,11,53,10.00
2017,04,11,11,54,10.10
2017,04,11,11,55,10.10
2017,04,11,11,56,10.00
2017,04,11,11,57,10.00
2017,04,11,11,58,9.90
2017,04,11,11,59,9.90
2017,04,11,12,00,9.80
2017,04,11,12,01,9.90
2017,04,11,12,02,9.90
2017,04,11,12,03,10.00
2017,04,11,12,04,10.00
2017,04,11,12,05,10.10
2017,04,11,12,06,10.10
2017,04,11,12,07,10.10
2017,04,11,12,08,10.00
2017,04,11,12,09,10.10
2017,04,11,12,10,10.00
2017,04,11,12,11,10.00
2017,04,11,12,12,9.90
2017,04,11,12,13,9.90
2017,04,11,12,14,9.90
2017,04,11,12,15,9.90
2017,04,11,12,16,9.90
2017,04,11,12,17,10.00
2017,04,11,12,18,10.10
2017,04,11,12,19,10.10
2017,04,11,12,20,10.10
2017,04,11,12,21,10.10
2017,04,11,12,22,10.10
2017,04,11,12,23,10.10
2017,04,11,12,24,10.10
2017,04,11,12,25,10.10
2017,04,11,12,26,10.10
2017,04,11,12,27,10.10
2017,04,11,12,28,10.10
2017,04,11,12,29,10.10
2017,04,11,12,30,10.10
2017,04,11,12,31,10.10
2017,04,11,12,32,10.10
2017,04,11,12,33,10.00
2017,04,11,12,34,10.00
2017,04,11,12,35,9.90
2017,04,11,12,36,9.90
2017,04,11,12,37,9.90
2017,04,11,12,38,10.00
2017,04,11,12,39,10.00
2017,04,11,12,40,10.10
2017,04,11,12,41,10.00
2017,04,11,12,42,10.00
2017,04,11,12,43,10.00
2017,04,11,12,44,10.10
2017,04,11,12,45,10.20
2017,04,11,12,46,10.30
2017,04,11,12,47,10.40
2017,04,11,12,48,10.40
2017,04,11,12,49,10.30
2017,04,11,12,50,10.20
2017,04,11,12,51,10.20
2017,04,11,12,52,10.20
2017,04,11,12,53,10.20
2017,04,11,12,54,10.10
2017,04,11,12,55,10.10
2017,04,11,12,56,10.00
2017,04,11,12,57,9.90
2017,04,11,12,58,9.80
2017,04,11,12,59,9.80
2017,04,11,13,00,9.70
2017,04,11,13,01,9.60
2017,04,11,13,02,9.60
2017,04,11,13,03,9.50
2017,04,11,13,04,9.50
2017,04,11,13,05,9.40
2017,04,11,13,06,9.40
2017,04,11,13,07,9.30
2017,04,11,13,08,9.30
2017,04,11,13,09,9.30
2017,04,11,13,10,9.30
2017,04,11,13,11,9.40
2017,04,11,13,12,9.40
2017,04,11,13,13,9.60
2017,04,11,13,14,9.70
2017,04,11,13,15,9.70
2017,04,11,13,16,9.70
2017,04,11,13,17,9.70
2017,04,11,13,18,9.70
2017,04,11,13,19,9.70
2017,04,11,13,20,9.70
2017,04,11,13,21,9.70
2017,04,11,13,22,9.70
2017,04,11,13,23,9.70
2017,04,11,13,24,9.80
2017,04,11,13,25,9.80
2017,04,11,13,26,9.70
2017,04,11,13,27,9.70
2017,04,11,13,28,9.60
2017,04,11,13,29,9.60
2017,04,11,13,30,9.60
2017,04,11,13,31,9.70
2017,04,11,13,32,9.70
2017,04,11,13,33,9.70
2017,04,11,13,34,9.70
2017,04,11,13,35,9.70
2017,04,11,13,36,9.70
2017,04,11,13,37,9.80
2017,04,11,13,38,9.90
2017,04,11,13,39,9.90
2017,04,11,13,40,10.00
2017,04,11,13,41,10.10
2017,04,11,13,42,10.10
2017,04,11,13,43,10.10
2017,04,11,13,44,10.10
2017,04,11,13,45,10.10
2017,04,11,13,46,10.00
2017,04,11,13,47,10.00
2017,04,11,13,48,9.90
2017,04,11,13,49,9.90
2017,04,11,13,50,9.90
2017,04,11,13,51,9.80
2017,04,11,13,52,9.80
2017,04,11,13,53,9.80
2017,04,11,13,54,9.80
2017,04,11,13,55,9.70
2017,04,11,13,56,9.70
2017,04,11,13,57,9.70
2017,04,11,13,58,9.70
2017,04,11,13,59,9.70
2017,04,11,14,00,9.70
2017,04,11,14,01,9.90
2017,04,11,14,02,9.90
2017,04,11,14,03,9.90
2017,04,11,14,04,9.90
2017,04,11,14,05,9.90
2017,04,11,14,06,9.90
2017,04,11,14,07,9.90
2017,04,11,14,08,9.90
2017,04,11,14,09,9.90
2017,04,11,14,10,9.90
2017,04,11,14,11,9.90
2017,04,11,14,12,9.90
2017,04,11,14,13,9.90
2017,04,11,14,14,9.90
2017,04,11,14,15,9.80
2017,04,11,14,16,9.80
2017,04,11,14,17,9.90
2017,04,11,14,18,9.90
2017,04,11,14,19,10.00
2017,04,11,14,20,10.00
2017,04,11,14,21,10.10
2017,04,11,14,22,10.10
2017,04,11,14,23,10.10
2017,04,11,14,24,10.10
2017,04,11,14,25,10.10
2017,04,11,14,26,10.10
2017,04,11,14,27,10.10
2017,04,11,14,28,10.20
2017,04,11,14,29,10.20
2017,04,11,14,30,10.20
2017,04,11,14,31,10.20
2017,04,11,14,32,10.20
2017,04,11,14,33,10.20
2017,04,11,14,34,10.20
2017,04,11,14,35,10.20
2017,04,11,14,36,10.20
2017,04,11,14,37,10.20
2017,04,11,14,38,10.20
2017,04,11,14,39,10.30
2017,04,11,14,40,10.30
2017,04,11,14,41,10.30
2017,04,11,14,42,10.30
2017,04,11,14,43,10.30
2017,04,11,14,44,10.30
2017,04,11,14,45,10.30
2017,04,11,14,46,10.40
2017,04,11,14,47,10.40
2017,04,11,14,48,10.40
2017,04,11,14,49,10.50
2017,04,11,14,50,10.50
2017,04,11,14,51,10.60
2017,04,11,14,52,10.70
2017,04,11,14,53,10.70
2017,04,11,14,54,10.80
2017,04,11,14,55,10.70
2017,04,11,14,56,10.70
2017,04,11,14,57,10.70
2017,04,11,14,58,10.70
2017,04,11,14,59,10.70
2017,04,11,15,00,10.70
2017,04,11,15,01,10.70
2017,04,11,15,02,10.70
2017,04,11,15,03,10.70
2017,04,11,15,04,10.60
2017,04,11,15,05,10.60
2017,04,11,15,06,10.60
2017,04,11,15,07,10.60
2017,04,11,15,08,10.60
2017,04,11,15,09,10.60
2017,04,11,15,10,10.60
2017,04,11,15,11,10.60
2017,04,11,15,12,10.60
2017,04,11,15,13,10.60
2017,04,11,15,14,10.60
2017,04,11,15,15,10.60
2017,04,11,15,16,10.60
2017,04,11,15,17,10.60
2017,04,11,15,18,10.50
2017,04,11,15,19,10.50
2017,04,11,15,20,10.50
2017,04,11,15,21,10.50
2017,04,11,15,22,10.40
2017,04,11,15,23,10.40
2017,04,11,15,24,10.40
2017,04,11,15,25,10.40
2017,04,11,15,26,10.40
2017,04,11,15,27,10.50
2017,04,11,15,28,10.50
2017,04,11,15,29,10.50
2017,04,11,15,30,10.50
2017,04,11,15,31,10.50
2017,04,11,15,32,10.50
2017,04,11,15,33,10.60
2017,04,11,15,34,10.60
2017,04,11,15,35,10.70
2017,04,11,15,36,10.70
2017,04,11,15,37,10.70
2017,04,11,15,38,10.70
2017,04,11,15,39,10.80
2017,04,11,15,40,10.90
2017,04,11,15,41,11.00
2017,04,11,15,42,11.10
2017,04,11,15,43,11.10
2017,04,11,15,44,11.10
2017,04,11,15,45,11.10
2017,04,11,15,46,11.10
2017,04,11,15,47,11.00
2017,04,11,15,48,11.00
2017,04,11,15,49,11.00
2017,04,11,15,50,11.00
2017,04,11,15,51,11.00
2017,04,11,15,52,10.90
2017,04,11,15,53,10.90
2017,04,11,15,54,10.90
2017,04,11,15,55,10.90
2017,04,11,15,56,10.90
2017,04,11,15,57,10.80
2017,04,11,15,58,10.80
2017,04,11,15,59,10.80
2017,04,11,16,00,10.80
2017,04,11,16,01,10.70
2017,04,11,16,02,10.70
2017,04,11,16,03,10.70
2017,04,11,16,04,10.80
2017,04,11,16,05,10.80
2017,04,11,16,06,10.80
2017,04,11,16,07,10.80
2017,04,11,16,08,10.80
2017,04,11,16,09,10.80
2017,04,11,16,10,10.80
2017,04,11,16,11,10.80
2017,04,11,16,12,10.80
2017,04,11,16,13,10.80
2017,04,11,16,14,10.90
2017,04,11,16,15,10.90
2017,04,11,16,16,10.90
2017,04,11,16,17,10.90
2017,04,11,16,18,11.00
2017,04,11,16,19,11.00
2017,04,11,16,20,11.00
2017,04,11,16,21,11.10
2017,04,11,16,22,11.10
2017,04,11,16,23,11.20
2017,04,11,16,24,11.20
2017,04,11,16,25,11.30
2017,04,11,16,26,11.40
2017,04,11,16,27,11.40
2017,04,11,16,28,11.50
2017,04,11,16,29,11.50
2017,04,11,16,30,11.60
2017,04,11,16,31,11.60
2017,04,11,16,32,11.60
2017,04,11,16,33,11.60
2017,04,11,16,34,11.60
2017,04,11,16,35,11.60
2017,04,11,16,36,11.60
2017,04,11,16,37,11.50
2017,04,11,16,38,11.40
2017,04,11,16,39,11.30
2017,04,11,16,40,11.30
2017,04,11,16,41,11.30
2017,04,11,16,42,11.30
2017,04,11,16,43,11.30
2017,04,11,16,44,11.30
2017,04,11,16,45,11.30
2017,04,11,16,46,11.40
2017,04,11,16,47,11.40
2017,04,11,16,48,11.40
2017,04,11,16,49,11.40
2017,04,11,16,50,11.30
2017,04,11,16,51,11.30
2017,04,11,16,52,11.30
2017,04,11,16,53,11.30
2017,04,11,16,54,11.30
2017,04,11,16,55,11.20
2017,04,11,16,56,11.20
2017,04,11,16,57,11.20
2017,04,11,16,58,11.20
2017,04,11,16,59,11.30
2017,04,11,17,00,11.30
2017,04,11,17,01,11.30
2017,04,11,17,02,11.40
2017,04,11,17,03,11.40
2017,04,11,17,04,11.50
2017,04,11,17,05,11.50
2017,04,11,17,06,11.60
2017,04,11,17,07,11.60
2017,04,11,17,08,11.60
2017,04,11,17,09,11.60
2017,04,11,17,10,11.60
2017,04,11,17,11,11.60
2017,04,11,17,12,11.60
2017,04,11,17,13,11.50
2017,04,11,17,14,11.50
2017,04,11,17,15,11.50
2017,04,11,17,16,11.60
2017,04,11,17,17,11.60
2017,04,11,17,18,11.60
2017,04,11,17,19,11.70
2017,04,11,17,20,11.70
2017,04,11,17,21,11.70
2017,04,11,17,22,11.70
2017,04,11,17,23,11.70
2017,04,11,17,24,11.70
2017,04,11,17,25,11.70
2017,04,11,17,26,11.70
2017,04,11,17,27,11.60
2017,04,11,17,28,11.60
2017,04,11,17,29,11.60
2017,04,11,17,30,11.60
2017,04,11,17,31,11.70
2017,04,11,17,32,11.70
2017,04,11,17,33,11.70
2017,04,11,17,34,11.80
2017,04,11,17,35,11.80
2017,04,11,17,36,11.80
2017,04,11,17,37,11.80
2017,04,11,17,38,11.80
2017,04,11,17,39,11.80
2017,04,11,17,40,11.80
2017,04,11,17,41,11.80
2017,04,11,17,42,11.80
2017,04,11,17,43,11.70
2017,04,11,17,44,11.70
2017,04,11,17,45,11.70
2017,04,11,17,46,11.70
2017,04,11,17,47,11.70
2017,04,11,17,48,11.70
2017,04,11,17,49,11.70
2017,04,11,17,50,11.70
2017,04,11,17,51,11.70
2017,04,11,17,52,11.70
2017,04,11,17,53,11.70
2017,04,11,17,54,11.70
2017,04,11,17,55,11.70
2017,04,11,17,56,11.70